Search for airport 
image banner adimage banner ad
image banner ad

DAUO - El Oued / Guemar

Located in El Oued, Algeria

ICAO - DAUO, IATA - ELU

Data provided by Airmate  

General information

Coordinates: N33°30'47" E6°46'57"
Elevation is 203 feet MSL.
 
View others Airports in El Oued Province

Operational data

Open for public use
Current time UTC:
Current local time:
Weather
METAR: DAUO 291100Z 14003KT 090V240 CAVOK 22/02 Q1026
TAF: TAF DAUO 290800Z 2909/2918 11006KT CAVOK
View NOTAMs / SUP AIP / TFR affecting this airport [VIEW]
Communications frequencies: [VIEW]

Runways:

RWY identifierQFULength (ft)Width (ft)SurfaceLDA (ft)
13130°9843148
31310°9843148
0220°656298ASP
20200°656298

Airport contact information

Address: El Oued Algeria

Satellite view of DAUO